2015-11-24 00:00:57 r, 16.64m,0000000019Hz,0000024905c,0000000.054s, 007.0C,00002191
2015-11-24 00:10:59 r, 16.94m,0000000014Hz,0000032531c,0000000.071s, 007.4C,00002191
2015-11-24 00:20:57 r, 16.68m,0000000018Hz,0000025636c,0000000.056s, 007.4C,00002191
2015-11-24 00:30:57 r, 16.47m,0000000021Hz,0000021122c,0000000.046s, 007.7C,00002191
2015-11-24 00:40:57 r, 16.49m,0000000022Hz,0000021722c,0000000.047s, 007.7C,00002191
2015-11-24 00:50:57 r, 16.47m,0000000022Hz,0000021142c,0000000.046s, 007.7C,00002191
2015-11-24 01:00:57 r, 16.61m,0000000019Hz,0000024106c,0000000.052s, 007.7C,00002191
2015-11-24 01:10:59 r, 16.80m,0000000016Hz,0000028820c,0000000.063s, 007.4C,00002191
2015-11-24 01:20:57 r, 16.80m,0000000016Hz,0000028672c,0000000.062s, 007.4C,00002191
2015-11-24 01:30:57 r, 16.97m,0000000013Hz,0000033537c,0000000.073s, 007.0C,00002191
2015-11-24 01:40:57 r, 16.82m,0000000016Hz,0000029359c,0000000.064s, 007.0C,00002191
2015-11-24 01:50:57 r, 16.96m,0000000014Hz,0000033523c,0000000.073s, 007.0C,00002191
2015-11-24 02:00:57 r, 16.95m,0000000014Hz,0000033191c,0000000.072s, 007.0C,00002191
2015-11-24 02:10:58 r, 17.42m,0000000009Hz,0000050762c,0000000.110s, 007.0C,00002191
2015-11-24 02:20:57 r, 17.13m,0000000011Hz,0000039041c,0000000.085s, 006.7C,00002191
2015-11-24 02:30:57 r, 17.42m,0000000009Hz,0000050983c,0000000.111s, 006.7C,00002191
2015-11-24 02:40:58 r, 17.11m,0000000012Hz,0000038636c,0000000.084s, 006.7C,00002191
2015-11-24 02:50:57 r, 17.26m,0000000010Hz,0000043977c,0000000.095s, 006.7C,00002191
2015-11-24 03:00:57 r, 17.31m,0000000010Hz,0000045878c,0000000.100s, 006.7C,00002191
2015-11-24 03:10:58 r, 17.31m,0000000010Hz,0000046050c,0000000.100s, 007.0C,00002191
2015-11-24 03:20:57 r, 17.44m,0000000008Hz,0000052018c,0000000.113s, 007.0C,00002191
2015-11-24 03:30:57 r, 17.49m,0000000009Hz,0000054379c,0000000.118s, 007.0C,00002191
2015-11-24 03:40:58 r, 17.85m,0000000006Hz,0000076043c,0000000.165s, 007.0C,00002191
2015-11-24 03:50:57 r, 17.62m,0000000007Hz,0000061244c,0000000.133s, 007.4C,00002191
2015-11-24 04:00:57 r, 17.37m,0000000010Hz,0000048860c,0000000.106s, 007.4C,00002191
2015-11-24 04:10:57 r, 17.87m,0000000006Hz,0000077555c,0000000.168s, 007.4C,00002191
2015-11-24 04:20:57 r, 17.82m,0000000006Hz,0000073834c,0000000.160s, 007.4C,00002191
2015-11-24 04:30:57 r, 17.84m,0000000006Hz,0000074807c,0000000.162s, 007.4C,00002191
2015-11-24 04:40:57 r, 18.05m,0000000005Hz,0000091098c,0000000.198s, 007.4C,00002191
2015-11-24 04:50:57 r, 18.26m,0000000004Hz,0000110151c,0000000.239s, 007.7C,00002191
2015-11-24 05:00:57 r, 18.47m,0000000004Hz,0000134163c,0000000.291s, 007.7C,00002191
2015-11-24 05:10:58 r, 18.52m,0000000003Hz,0000141095c,0000000.306s, 007.7C,00002191
2015-11-24 05:20:57 r, 18.51m,0000000004Hz,0000139119c,0000000.302s, 007.7C,00002191
2015-11-24 05:30:57 r, 18.52m,0000000004Hz,0000141151c,0000000.306s, 007.7C,00002191
2015-11-24 05:40:59 r, 18.89m,0000000002Hz,0000198607c,0000000.431s, 007.7C,00002191
2015-11-24 05:50:57 r, 18.96m,0000000002Hz,0000210338c,0000000.456s, 007.7C,00002191
2015-11-24 06:00:57 r, 19.38m,0000000002Hz,0000309307c,0000000.671s, 007.7C,00002191
2015-11-24 06:10:58 r, 19.07m,0000000002Hz,0000231467c,0000000.502s, 007.7C,00002191
2015-11-24 06:20:57 r, 18.85m,0000000002Hz,0000190288c,0000000.413s, 007.7C,00002191
2015-11-24 06:30:57 r, 18.29m,0000000004Hz,0000113893c,0000000.247s, 007.7C,00002191
2015-11-24 06:40:58 r, 17.90m,0000000006Hz,0000079828c,0000000.173s, 007.7C,00002191
2015-11-24 06:50:57 r, 17.18m,0000000012Hz,0000040899c,0000000.089s, 007.7C,00002191
2015-11-24 07:00:57 r, 15.82m,0000000040Hz,0000011674c,0000000.025s, 007.7C,00002191
2015-11-24 07:10:57 r, 14.29m,0000000163Hz,0000000000c,0000000.000s, 007.7C,00002191
2015-11-24 07:20:57 r, 12.42m,0000000905Hz,0000000000c,0000000.000s, 008.0C,00002191
2015-11-24 07:30:57 r, 10.38m,0000005923Hz,0000000000c,0000000.000s, 008.0C,00002191
2015-11-24 07:40:58 r, 08.68m,0000028529Hz,0000000000c,0000000.000s, 008.0C,00002191
2015-11-24 07:50:57 r, 07.49m,0000085668Hz,0000000000c,0000000.000s, 008.3C,00002191
2015-11-24 08:00:57 r, 06.69m,0000177613Hz,0000000000c,0000000.000s, 008.3C,00002191
2015-11-24 08:10:58 r, 05.99m,0000338770Hz,0000000000c,0000000.000s, 008.7C,00002191
2015-11-24 08:20:57 r, 00.00m,0000511666Hz,0000000000c,0000000.000s, 008.7C,00002191
2015-11-24 08:30:57 r, 00.00m,0000597497Hz,0000000000c,0000000.000s, 008.7C,00002191
2015-11-24 08:40:57 r, 00.00m,0000597603Hz,0000000000c,0000000.000s, 009.3C,00002191
2015-11-24 08:50:57 r, 00.00m,0000597395Hz,0000000000c,0000000.000s, 009.3C,00002191
2015-11-24 09:00:57 r, 00.00m,0000597378Hz,0000000000c,0000000.000s, 009.6C,00002191
2015-11-24 09:10:57 r, 00.00m,0000597389Hz,0000000000c,0000000.000s, 009.9C,00002191
2015-11-24 09:20:57 r, 00.00m,0000597269Hz,0000000000c,0000000.000s, 010.3C,00002191
2015-11-24 09:30:57 r, 00.00m,0000597316Hz,0000000000c,0000000.000s, 010.6C,00002191
2015-11-24 09:40:57 r, 00.00m,0000597245Hz,0000000000c,0000000.000s, 011.2C,00002191
2015-11-24 09:50:57 r, 00.00m,0000597185Hz,0000000000c,0000000.000s, 011.6C,00002191
2015-11-24 10:00:57 r, 00.00m,0000597083Hz,0000000000c,0000000.000s, 011.9C,00002191
2015-11-24 10:10:57 r, 00.00m,0000597123Hz,0000000000c,0000000.000s, 012.5C,00002191
2015-11-24 10:20:57 r, 00.00m,0000597022Hz,0000000000c,0000000.000s, 012.5C,00002191
2015-11-24 10:30:57 r, 00.00m,0000597134Hz,0000000000c,0000000.000s, 013.2C,00002191
2015-11-24 10:40:57 r, 00.00m,0000597065Hz,0000000000c,0000000.000s, 013.2C,00002191
2015-11-24 10:50:57 r, 00.00m,0000596838Hz,0000000000c,0000000.000s, 013.8C,00002191
2015-11-24 11:00:57 r, 00.00m,0000596915Hz,0000000000c,0000000.000s, 014.1C,00002191
2015-11-24 11:10:57 r, 00.00m,0000596892Hz,0000000000c,0000000.000s, 014.1C,00002191
2015-11-24 11:20:57 r, 00.00m,0000596940Hz,0000000000c,0000000.000s, 014.5C,00002191
2015-11-24 11:30:57 r, 00.00m,0000596860Hz,0000000000c,0000000.000s, 014.8C,00002191
2015-11-24 11:40:57 r, 00.00m,0000596881Hz,0000000000c,0000000.000s, 014.8C,00002191
2015-11-24 11:50:57 r, 00.00m,0000596853Hz,0000000000c,0000000.000s, 014.8C,00002191
2015-11-24 12:00:57 r, 00.00m,0000596829Hz,0000000000c,0000000.000s, 014.8C,00002191
2015-11-24 12:10:57 r, 00.00m,0000596748Hz,0000000000c,0000000.000s, 015.1C,00002191
2015-11-24 12:20:57 r, 00.00m,0000596773Hz,0000000000c,0000000.000s, 014.8C,00002191
2015-11-24 12:30:57 r, 00.00m,0000596879Hz,0000000000c,0000000.000s, 014.8C,00002191
2015-11-24 12:40:57 r, 00.00m,0000596887Hz,0000000000c,0000000.000s, 015.1C,00002191
2015-11-24 12:50:58 r, 00.00m,0000596950Hz,0000000000c,0000000.000s, 014.8C,00002191
2015-11-24 13:00:57 r, 00.00m,0000596959Hz,0000000000c,0000000.000s, 014.8C,00002191
2015-11-24 13:10:57 r, 00.00m,0000596885Hz,0000000000c,0000000.000s, 014.8C,00002191
2015-11-24 13:20:58 r, 00.00m,0000597040Hz,0000000000c,0000000.000s, 014.5C,00002191
2015-11-24 13:30:57 r, 00.00m,0000596927Hz,0000000000c,0000000.000s, 014.5C,00002191
2015-11-24 13:40:57 r, 00.00m,0000596953Hz,0000000000c,0000000.000s, 014.5C,00002191
2015-11-24 13:50:57 r, 00.00m,0000596897Hz,0000000000c,0000000.000s, 014.5C,00002191
2015-11-24 14:00:57 r, 00.00m,0000596989Hz,0000000000c,0000000.000s, 014.8C,00002191
2015-11-24 14:10:57 r, 00.00m,0000596846Hz,0000000000c,0000000.000s, 014.8C,00002191
2015-11-24 14:20:57 r, 00.00m,0000596889Hz,0000000000c,0000000.000s, 014.5C,00002191
2015-11-24 14:30:57 r, 00.00m,0000596952Hz,0000000000c,0000000.000s, 014.8C,00002191
2015-11-24 14:40:57 r, 00.00m,0000596966Hz,0000000000c,0000000.000s, 014.8C,00002191
2015-11-24 14:50:58 r, 00.00m,0000596921Hz,0000000000c,0000000.000s, 014.8C,00002191
2015-11-24 15:00:57 r, 00.00m,0000596963Hz,0000000000c,0000000.000s, 014.5C,00002191
2015-11-24 15:10:57 r, 00.00m,0000596932Hz,0000000000c,0000000.000s, 014.5C,00002191
2015-11-24 15:20:57 r, 00.00m,0000596893Hz,0000000000c,0000000.000s, 014.1C,00002191
2015-11-24 15:30:57 r, 00.00m,0000596948Hz,0000000000c,0000000.000s, 013.5C,00002191
2015-11-24 15:40:57 r, 00.00m,0000596931Hz,0000000000c,0000000.000s, 013.5C,00002191
2015-11-24 15:50:59 r, 00.00m,0000597032Hz,0000000000c,0000000.000s, 013.2C,00002191
2015-11-24 16:00:57 r, 00.00m,0000520364Hz,0000000000c,0000000.000s, 012.8C,00002191
2015-11-24 16:10:57 r, 00.00m,0000401767Hz,0000000000c,0000000.000s, 012.8C,00002191
2015-11-24 16:20:58 r, 06.44m,0000224106Hz,0000000000c,0000000.000s, 012.5C,00002191
2015-11-24 16:30:57 r, 07.10m,0000121925Hz,0000000000c,0000000.000s, 012.2C,00002191
2015-11-24 16:40:57 r, 07.87m,0000060264Hz,0000000000c,0000000.000s, 012.2C,00002191
2015-11-24 16:50:57 r, 09.06m,0000020145Hz,0000000000c,0000000.000s, 012.2C,00002191
2015-11-24 17:00:57 r, 10.72m,0000004380Hz,0000000000c,0000000.000s, 012.2C,00002191
2015-11-24 17:10:57 r, 12.67m,0000000721Hz,0000000000c,0000000.000s, 012.2C,00002191
2015-11-24 17:20:59 r, 14.69m,0000000111Hz,0000004144c,0000000.009s, 011.9C,00002191
2015-11-24 17:30:57 r, 16.12m,0000000030Hz,0000015405c,0000000.033s, 011.9C,00002191
2015-11-24 17:40:57 r, 17.15m,0000000011Hz,0000039917c,0000000.087s, 011.9C,00002191
2015-11-24 17:50:59 r, 17.24m,0000000011Hz,0000043482c,0000000.094s, 011.9C,00002191
2015-11-24 18:00:57 r, 17.30m,0000000010Hz,0000045792c,0000000.099s, 011.9C,00002191
2015-11-24 18:10:57 r, 17.00m,0000000013Hz,0000034726c,0000000.075s, 011.9C,00002191
2015-11-24 18:20:57 r, 16.99m,0000000014Hz,0000034312c,0000000.074s, 011.9C,00002191
2015-11-24 18:30:57 r, 16.94m,0000000014Hz,0000032596c,0000000.071s, 011.9C,00002191
2015-11-24 18:40:57 r, 16.94m,0000000014Hz,0000032704c,0000000.071s, 011.9C,00002191
2015-11-24 18:50:57 r, 17.03m,0000000013Hz,0000035825c,0000000.078s, 011.9C,00002191
2015-11-24 19:00:57 r, 16.73m,0000000017Hz,0000027102c,0000000.059s, 011.9C,00002191
2015-11-24 19:10:57 r, 16.74m,0000000017Hz,0000027297c,0000000.059s, 011.9C,00002191
2015-11-24 19:20:57 r, 16.68m,0000000018Hz,0000025808c,0000000.056s, 011.9C,00002191
2015-11-24 19:30:57 r, 16.57m,0000000020Hz,0000023314c,0000000.051s, 011.9C,00002191
2015-11-24 19:40:57 r, 16.42m,0000000022Hz,0000020260c,0000000.044s, 012.2C,00002191
2015-11-24 19:50:57 r, 16.35m,0000000024Hz,0000019097c,0000000.041s, 012.2C,00002191
2015-11-24 20:00:57 r, 16.36m,0000000024Hz,0000019307c,0000000.042s, 012.2C,00002191
2015-11-24 20:10:57 r, 16.31m,0000000026Hz,0000018330c,0000000.040s, 012.2C,00002191
2015-11-24 20:20:58 r, 16.37m,0000000024Hz,0000019338c,0000000.042s, 012.2C,00002191
2015-11-24 20:30:57 r, 16.30m,0000000026Hz,0000018278c,0000000.040s, 012.2C,00002191
2015-11-24 20:40:57 r, 16.31m,0000000025Hz,0000018383c,0000000.040s, 012.2C,00002191
2015-11-24 20:50:57 r, 16.22m,0000000027Hz,0000016842c,0000000.037s, 012.5C,00002191
2015-11-24 21:00:57 r, 16.17m,0000000029Hz,0000016032c,0000000.035s, 012.5C,00002191
2015-11-24 21:10:57 r, 16.11m,0000000030Hz,0000015225c,0000000.033s, 012.5C,00002191
2015-11-24 21:20:57 r, 16.09m,0000000031Hz,0000015036c,0000000.033s, 012.5C,00002191
2015-11-24 21:30:57 r, 16.01m,0000000033Hz,0000013890c,0000000.030s, 012.5C,00002191
2015-11-24 21:40:57 r, 16.19m,0000000028Hz,0000016363c,0000000.036s, 012.5C,00002191
2015-11-24 21:50:57 r, 16.29m,0000000025Hz,0000017973c,0000000.039s, 012.5C,00002191
2015-11-24 22:00:57 r, 16.35m,0000000025Hz,0000018997c,0000000.041s, 012.5C,00002191
2015-11-24 22:10:57 r, 16.24m,0000000027Hz,0000017240c,0000000.037s, 012.5C,00002191
2015-11-24 22:20:57 r, 16.42m,0000000023Hz,0000020296c,0000000.044s, 012.8C,00002191
2015-11-24 22:30:57 r, 16.56m,0000000020Hz,0000023034c,0000000.050s, 012.8C,00002191
2015-11-24 22:40:57 r, 16.66m,0000000019Hz,0000025251c,0000000.055s, 012.8C,00002191
2015-11-24 22:50:57 r, 16.54m,0000000020Hz,0000022671c,0000000.049s, 012.8C,00002191
2015-11-24 23:00:57 r, 16.66m,0000000018Hz,0000025305c,0000000.055s, 012.8C,00002191
2015-11-24 23:10:57 r, 16.71m,0000000018Hz,0000026394c,0000000.057s, 013.2C,00002191
2015-11-24 23:20:57 r, 16.60m,0000000019Hz,0000024023c,0000000.052s, 012.8C,00002191
2015-11-24 23:30:57 r, 16.36m,0000000024Hz,0000019291c,0000000.042s, 013.2C,00002191
2015-11-24 23:40:57 r, 16.56m,0000000020Hz,0000023084c,0000000.050s, 013.2C,00002191
2015-11-24 23:50:57 r, 16.64m,0000000019Hz,0000024789c,0000000.054s, 013.2C,00002191
